FW9876 Weather Reports


time (UTC)temp
F
wind
direction
speed
knots
gust
knots
rain 1hr
in
rain 24hr
in
rain mn
in
humidity
%
barometer
mb
20260507142509 55 191 0.0 0.0 0.00 0.00 0.00 99 1014.6
20260507141508 54 338 0.0 0.0 0.00 0.00 0.00 99 1014.6
20260507140508 54 55 0.0 0.0 0.00 0.00 0.00 99 1014.6
20260507135508 52 178 0.0 0.0 0.00 0.00 0.00 99 1014.2
20260507134508 52 139 0.0 0.0 0.00 0.00 0.00 99 1014.2
20260507133505 51 199 0.0 0.0 0.00 0.00 0.00 99 1013.9
20260507132500 51 49 0.0 0.0 0.00 0.00 0.00 99 1014.2
20260507131459 51 196 0.0 0.0 0.00 0.00 0.00 99 1014.2
20260507130458 51 169 0.0 0.0 0.00 0.00 0.00 99 1014.2
20260507125455 50 142 0.0 0.0 0.00 0.00 0.00 99 1013.9
20260507124454 50 172 0.0 0.0 0.00 0.00 0.00 99 1013.9
20260507123455 51 169 0.0 0.0 0.00 0.00 0.00 99 1013.9
20260507122452 50 161 0.0 0.0 0.00 0.00 0.00 99 1013.9
20260507121450 50 180 0.0 0.0 0.00 0.00 0.00 99 1013.6
20260507120449 51 180 0.0 0.0 0.00 0.00 0.00 99 1013.9
20260507115448 51 232 0.0 0.0 0.00 0.00 0.00 99 1013.6
20260507114445 52 139 0.0 0.0 0.00 0.00 0.00 99 1013.6
20260507113446 52 162 0.0 0.0 0.00 0.00 0.00 99 1013.9
20260507112440 52 190 0.0 0.0 0.00 0.00 0.00 99 1013.9
20260507111440 52 89 0.0 0.0 0.00 0.00 0.00 99 1014.2
20260507110438 52 161 0.0 0.0 0.00 0.00 0.00 99 1014.2
20260507105438 53 164 0.0 0.0 0.00 0.00 0.00 99 1014.2
20260507104437 53 127 0.0 0.0 0.00 0.00 0.00 99 1014.2
20260507103435 53 167 0.0 0.0 0.00 0.00 0.00 99 1014.2
20260507102434 53 163 0.0 0.0 0.00 0.00 0.00 99 1014.2
20260507101431 53 114 0.0 0.0 0.00 0.00 0.00 99 1014.2
20260507100431 52 184 0.0 0.0 0.00 0.00 0.00 99 1014.6
20260507095427 53 225 0.0 0.0 0.00 0.00 0.00 99 1014.6
20260507094426 53 233 0.0 0.0 0.00 0.00 0.00 98 1014.6
20260507093421 54 130 0.0 0.0 0.00 0.00 0.00 98 1014.6
20260507092420 54 139 0.0 0.0 0.00 0.00 0.00 98 1014.9
20260507091420 55 167 0.0 0.0 0.00 0.00 0.00 98 1014.9
20260507090418 54 157 0.0 0.0 0.00 0.00 0.00 99 1014.6
20260507085418 54 200 0.0 0.0 0.00 0.00 0.00 99 1014.6
20260507084417 54 144 0.0 0.0 0.00 0.00 0.00 99 1014.9
20260507083417 53 152 0.0 0.0 0.00 0.00 0.00 99 1015.3
20260507082415 54 162 0.0 0.0 0.00 0.00 0.00 98 1015.3
20260507081414 54 256 0.0 0.0 0.00 0.00 0.00 98 1015.3
20260507080413 54 134 0.0 0.0 0.00 0.00 0.00 98 1015.3
20260507075410 55 175 0.0 0.0 0.00 0.00 0.00 98 1015.3
20260507074410 55 153 0.0 0.0 0.00 0.00 0.00 97 1015.3
20260507073410 55 128 0.0 0.0 0.00 0.00 0.00 97 1015.3
20260507072404 55 149 0.0 0.0 0.00 0.00 0.00 98 1015.6
20260507071404 55 127 0.0 0.0 0.00 0.00 0.00 97 1015.6
20260507070404 55 150 0.0 0.0 0.00 0.00 0.00 97 1015.6
20260507065403 56 132 0.0 0.0 0.00 0.00 0.00 98 1015.6
20260507064359 55 140 0.0 0.0 0.00 0.00 0.00 98 1015.6
20260507063359 55 163 0.0 0.0 0.00 0.00 0.00 97 1015.6
20260507062358 55 151 0.0 0.0 0.00 0.00 0.00 97 1015.6
20260507061354 55 171 0.0 0.0 0.00 0.00 0.00 97 1015.6
20260507060355 56 164 0.0 0.0 0.00 0.00 0.00 96 1015.6
20260507055352 56 138 0.0 0.0 0.00 0.00 0.00 96 1015.6
20260507054351 56 129 0.0 0.0 0.00 0.00 0.00 96 1015.9
20260507053347 56 156 0.0 0.0 0.00 0.00 0.00 96 1015.6
20260507052341 56 172 0.0 0.0 0.00 0.00 0.00 96 1015.6
20260507051337 56 162 0.0 0.0 0.00 0.00 0.00 96 1015.6
20260507050335 55 184 0.0 0.0 0.00 0.00 0.00 96 1015.9
20260507045335 55 172 0.0 0.0 0.00 0.00 0.00 95 1015.6
20260507044334 56 170 0.0 0.0 0.00 0.00 0.00 94 1015.6
20260507043333 56 171 0.0 0.0 0.00 0.00 0.00 94 1015.6
20260507042331 57 109 0.0 0.0 0.00 0.00 0.00 93 1015.9
20260507041331 57 181 0.0 0.0 0.00 0.00 0.00 93 1015.6
20260507040330 57 208 0.0 0.0 0.00 0.00 0.00 92 1015.3
20260507035327 57 211 0.0 0.0 0.00 0.00 0.00 92 1015.3
20260507034322 57 239 0.0 0.0 0.00 0.00 0.00 91 1015.3
20260507033318 58 214 0.0 0.0 0.00 0.00 0.00 90 1015.3
20260507032316 58 215 0.0 0.0 0.00 0.00 0.00 89 1015.3
20260507031316 59 215 0.0 0.0 0.00 0.00 0.00 88 1015.3
20260507030316 60 215 0.0 0.0 0.00 0.00 0.00 87 1014.9
20260507025315 61 214 0.0 0.0 0.00 0.00 0.00 87 1014.9
20260507024315 62 214 0.0 0.0 0.00 0.00 0.00 84 1014.9
20260507023312 63 207 0.0 0.0 0.00 0.00 0.00 82 1014.6
20260507022312 65 219 0.0 0.0 0.00 0.00 0.00 76 1014.6
20260507021310 66 237 0.0 0.0 0.00 0.00 0.00 73 1014.9
20260507020310 68 181 0.0 0.0 0.00 0.00 0.00 68 1014.2
20260507015310 69 220 0.0 0.0 0.00 0.00 0.00 64 1014.2
20260507014309 68 309 0.0 1.7 0.00 0.00 0.00 64 1014.2
20260507013309 68 245 0.0 0.0 0.00 0.00 0.00 63 1014.2
20260507012308 69 216 0.0 1.7 0.00 0.00 0.00 61 1014.2
20260507011308 69 226 0.0 0.0 0.00 0.00 0.00 62 1013.9
20260507010303 69 244 0.0 0.0 0.00 0.00 0.00 62 1013.9
20260507005305 70 272 1.7 1.7 0.00 0.00 0.00 64 1013.9
20260507004303 70 250 0.0 1.7 0.00 0.00 0.00 65 1013.9
20260507003301 71 225 0.0 0.0 0.00 0.00 0.00 65 1013.9
20260507002259 70 246 0.0 0.0 0.00 0.00 0.00 65 1013.9
20260507001254 71 251 0.0 0.0 0.00 0.00 0.00 64 1013.9
20260507000251 72 243 0.0 1.7 0.00 0.00 0.00 62 1013.6
20260506235249 72 225 0.0 1.7 0.00 0.00 0.00 61 1013.6
20260506234244 73 257 0.0 4.3 0.00 0.00 0.00 61 1013.6
20260506233244 73 262 0.0 4.3 0.00 0.00 0.00 59 1013.6
20260506232241 75 255 0.0 1.7 0.00 0.00 0.00 57 1013.6
20260506231237 74 207 0.0 4.3 0.00 0.00 0.00 59 1013.6
20260506230236 75 226 0.0 7.0 0.00 0.00 0.00 58 1013.6
20260506225236 75 243 4.3 7.0 0.00 0.00 0.00 58 1013.6
20260506224236 75 215 0.0 4.3 0.00 0.00 0.00 60 1013.6
20260506223233 75 198 0.9 4.3 0.00 0.00 0.00 60 1013.9
20260506222232 75 223 0.0 4.3 0.00 0.00 0.00 59 1013.9
20260506221228 73 274 1.7 11.3 0.00 0.00 0.00 61 1014.2
20260506220225 75 249 0.0 1.7 0.00 0.00 0.00 61 1014.2
20260506215224 74 314 2.6 4.3 0.00 0.00 0.00 62 1014.2
20260506214224 75 263 0.0 1.7 0.00 0.00 0.00 59 1014.2
20260506213219 76 242 0.9 4.3 0.00 0.00 0.00 59 1014.2
20260506212217 75 212 0.0 1.7 0.00 0.00 0.00 59 1014.2
20260506211215 75 236 2.6 4.3 0.00 0.00 0.00 60 1014.2
20260506210215 75 196 0.0 1.7 0.00 0.00 0.00 60 1014.2
20260506205213 75 265 4.3 7.0 0.00 0.00 0.00 60 1014.6
20260506204208 75 261 2.6 4.3 0.00 0.00 0.00 60 1014.6
20260506203203 75 239 0.0 1.7 0.00 0.00 0.00 59 1014.6
20260506202203 73 267 2.6 4.3 0.00 0.00 0.00 60 1014.6
20260506201202 73 268 0.9 7.0 0.00 0.00 0.00 60 1014.6
20260506200202 74 296 0.0 4.3 0.00 0.00 0.00 59 1014.9
20260506195200 74 219 0.0 1.7 0.00 0.00 0.00 59 1014.9
20260506194200 75 251 1.7 7.0 0.00 0.00 0.00 58 1014.9
20260506193200 76 296 0.0 1.7 0.00 0.00 0.00 57 1014.9
20260506192200 74 212 0.0 4.3 0.00 0.00 0.00 59 1015.3
20260506191158 75 215 0.9 4.3 0.00 0.00 0.00 55 1015.3
20260506190158 73 251 0.0 0.0 0.00 0.00 0.00 57 1015.3
20260506185157 72 313 0.0 1.7 0.00 0.00 0.00 55 1015.3
20260506184152 74 209 0.0 1.7 0.00 0.00 0.00 55 1015.3
20260506183151 72 32 1.7 4.3 0.00 0.00 0.00 56 1015.6
20260506182151 72 202 0.0 4.3 0.00 0.00 0.00 57 1015.6
20260506181146 71 89 0.0 0.0 0.00 0.00 0.00 60 1015.9
20260506180145 71 202 0.0 1.7 0.00 0.00 0.00 60 1015.9
20260506175144 68 279 0.0 0.0 0.00 0.00 0.00 61 1015.9
20260506174139 69 203 0.0 1.7 0.00 0.00 0.00 60 1015.9
20260506173139 68 291 1.7 4.3 0.00 0.00 0.00 63 1015.9
20260506172138 70 203 0.0 0.0 0.00 0.00 0.00 56 1016.4
20260506171134 67 213 0.0 0.0 0.00 0.00 0.00 62 1016.4
20260506170128 66 228 0.0 1.7 0.00 0.00 0.00 66 1016.4
20260506165127 66 195 0.9 4.3 0.00 0.00 0.00 67 1016.4
20260506164127 67 284 0.9 1.7 0.00 0.00 0.00 67 1016.4
20260506163123 65 140 0.0 0.0 0.00 0.00 0.00 71 1016.4
20260506162123 64 326 0.0 0.0 0.00 0.00 0.00 71 1016.4
20260506161121 63 199 0.9 1.7 0.00 0.00 0.00 71 1016.4
20260506160121 63 264 0.0 0.0 0.00 0.00 0.00 73 1016.4
20260506155116 63 10 0.0 0.0 0.00 0.00 0.00 74 1016.4
20260506152924 63 90 0.0 0.0 0.00 0.00 0.00 75 1016.4
20260506151920 62 36 0.0 0.0 0.00 0.00 0.00 76 1016.4
20260506150920 61 81 0.0 0.0 0.00 0.00 0.00 79 1016.4
20260506145919 58 87 0.0 0.0 0.00 0.00 0.00 82 1016.4
20260506144918 55 4 0.0 0.0 0.00 0.00 0.00 90 1016.4
20260506143913 53 38 0.0 0.0 0.00 0.00 0.00 96 1016.4